CW5560 Weather Reports


Display with metric or nautical units.
time (UTC)temp
F
wind
direction
speed
MPH
gust
MPH
rain 1hr
in
rain 24hr
in
rain mn
in
humidity
%
barometer
mb
20190220232522 30 198 0.0 1.0 0.00 0.25 0.25 85 1001.0
20190220232028 30 219 0.0 1.0 0.00 0.25 0.25 85 1000.9
20190220231534 30 224 0.0 2.0 0.00 0.25 0.25 85 1000.9
20190220231040 30 224 0.0 2.0 0.00 0.25 0.25 85 1001.0
20190220230525 30 225 0.0 4.0 0.00 0.25 0.25 85 1001.0
20190220230030 30 226 1.0 4.0 0.00 0.25 0.25 85 1001.0
20190220225536 30 226 0.0 3.0 0.00 0.25 0.25 85 1001.0
20190220225022 30 227 1.0 3.0 0.00 0.25 0.25 85 1001.0
20190220224527 30 227 1.0 3.0 0.00 0.25 0.25 85 1001.0
20190220224033 30 209 1.0 2.0 0.00 0.25 0.25 85 1000.9
20190220223523 30 209 0.0 2.0 0.00 0.25 0.25 84 1000.8
20190220223028 30 209 0.0 2.0 0.00 0.25 0.25 85 1000.7
20190220222534 30 209 0.0 3.0 0.00 0.25 0.25 85 1000.6
20190220222039 30 209 0.0 3.0 0.00 0.25 0.25 85 1000.6
20190220221525 30 210 0.0 1.0 0.00 0.25 0.25 85 1000.6
20190220221031 31 211 0.0 2.0 0.00 0.25 0.25 85 1000.7
20190220220536 31 209 1.0 3.0 0.00 0.25 0.25 85 1000.8
20190220220022 31 180 0.0 3.0 0.00 0.25 0.25 85 1000.7
20190220215528 31 185 1.0 4.0 0.00 0.25 0.25 85 1000.7
20190220215033 31 177 2.0 5.0 0.00 0.25 0.25 85 1000.8
20190220214522 31 95 2.0 4.0 0.00 0.25 0.25 85 1000.8
20190220214028 31 153 1.0 4.0 0.00 0.25 0.25 85 1000.7
20190220213534 30 142 1.0 4.0 0.00 0.25 0.25 85 1000.6
20190220213040 30 157 1.0 4.0 0.00 0.25 0.25 85 1000.6
20190220212525 30 130 1.0 5.0 0.00 0.25 0.25 85 1000.7
20190220212031 30 166 2.0 4.0 0.00 0.25 0.25 86 1000.9
20190220211537 30 131 2.0 4.0 0.01 0.25 0.25 85 1000.9
20190220211022 30 137 1.0 2.0 0.01 0.25 0.25 86 1000.9
20190220210528 30 138 1.0 2.0 0.01 0.25 0.25 86 1000.9
20190220210034 30 138 0.0 5.0 0.01 0.25 0.25 86 1000.9
20190220205524 30 132 2.0 5.0 0.01 0.25 0.25 86 1001.0
20190220205030 30 144 1.0 4.0 0.01 0.25 0.25 86 1001.0
20190220204535 30 137 1.0 6.0 0.01 0.25 0.25 86 1001.0
20190220204021 30 157 0.0 6.0 0.01 0.25 0.25 86 1001.0
20190220203527 30 107 2.0 7.0 0.01 0.25 0.25 86 1000.9
20190220203033 29 155 2.0 7.0 0.01 0.25 0.25 86 1001.1
20190220202539 29 144 3.0 7.0 0.01 0.25 0.25 87 1001.1
20190220202025 29 119 3.0 7.0 0.01 0.25 0.25 86 1001.2
20190220201531 29 150 2.0 5.0 0.00 0.24 0.24 87 1001.2
20190220201021 29 107 3.0 5.0 0.00 0.24 0.24 87 1001.2
20190220200526 29 103 2.0 6.0 0.00 0.24 0.24 87 1001.2
20190220200031 29 156 1.0 7.0 0.00 0.24 0.24 87 1001.3
20190220195537 28 115 1.0 8.0 0.00 0.24 0.24 87 1001.4
20190220195023 28 121 2.0 6.0 0.00 0.24 0.24 87 1001.5
20190220194529 28 165 3.0 7.0 0.00 0.24 0.24 87 1001.5
20190220194034 28 108 2.0 7.0 0.00 0.24 0.24 87 1001.6
20190220193520 28 106 2.0 9.0 0.00 0.24 0.24 87 1001.6
20190220193027 28 86 4.0 9.0 0.00 0.24 0.24 87 1001.6
20190220192533 28 109 3.0 12.0 0.00 0.24 0.24 87 1001.8
20190220192023 28 89 3.0 8.0 0.00 0.24 0.24 87 1002.0
20190220191530 28 136 4.0 8.0 0.00 0.24 0.24 87 1002.1
20190220191037 28 111 4.0 10.0 0.00 0.24 0.24 87 1002.1
20190220190522 28 119 4.0 10.0 0.01 0.24 0.24 87 1002.2
20190220190029 28 119 4.0 9.0 0.01 0.24 0.24 88 1002.4
20190220185535 28 140 3.0 11.0 0.01 0.24 0.24 88 1002.4
20190220185022 28 92 2.0 5.0 0.01 0.24 0.24 88 1002.5
20190220184528 28 83 2.0 8.0 0.01 0.24 0.24 88 1002.6
20190220184035 28 96 2.0 8.0 0.01 0.24 0.24 88 1002.7
20190220183521 28 100 3.0 6.0 0.02 0.24 0.24 89 1002.9
20190220183031 28 103 2.0 6.0 0.02 0.24 0.24 89 1003.0
20190220182537 28 111 3.0 9.0 0.02 0.24 0.24 89 1003.2
20190220182023 27 96 3.0 13.0 0.02 0.24 0.24 89 1003.3
20190220181530 27 125 4.0 13.0 0.03 0.24 0.24 88 1003.4
20190220181037 27 69 1.0 5.0 0.02 0.23 0.23 89 1003.6
20190220180523 27 142 3.0 8.0 0.03 0.23 0.23 89 1003.7
20190220180029 27 119 3.0 7.0 0.04 0.23 0.23 89 1003.9
20190220175535 26 70 3.0 8.0 0.04 0.23 0.23 89 1004.1
20190220175021 26 80 3.0 8.0 0.05 0.23 0.23 89 1004.2
20190220174527 26 124 3.0 6.0 0.05 0.23 0.23 89 1004.5
20190220174037 26 95 2.0 8.0 0.06 0.23 0.23 89 1004.6
20190220173524 26 124 3.0 8.0 0.05 0.22 0.22 89 1004.9
20190220173031 26 101 2.0 8.0 0.06 0.22 0.22 89 1005.1
20190220172536 26 113 1.0 6.0 0.06 0.22 0.22 89 1005.3
20190220172023 26 113 1.0 7.0 0.06 0.22 0.22 89 1005.4
20190220171530 25 134 2.0 7.0 0.05 0.21 0.21 89 1005.5
20190220171037 25 167 2.0 4.0 0.05 0.21 0.21 89 1005.7
20190220170524 25 178 1.0 5.0 0.04 0.20 0.20 89 1005.9
20190220170031 25 138 2.0 5.0 0.04 0.19 0.19 89 1006.0
20190220165521 25 151 1.0 5.0 0.04 0.19 0.19 89 1006.1
20190220165027 25 137 2.0 4.0 0.03 0.18 0.18 89 1006.1
20190220164534 25 155 1.0 4.0 0.03 0.18 0.18 89 1006.2
20190220164021 24 138 0.0 8.0 0.02 0.17 0.17 89 1006.2
20190220163528 24 113 2.0 9.0 0.02 0.17 0.17 89 1006.3
20190220163034 24 82 4.0 9.0 0.02 0.16 0.16 89 1006.1
20190220162520 24 83 4.0 10.0 0.02 0.16 0.16 89 1005.9
20190220162025 24 87 4.0 10.0 0.02 0.16 0.16 89 1005.9
20190220161531 24 78 3.0 10.0 0.02 0.16 0.16 89 1006.1
20190220161038 24 121 4.0 10.0 0.02 0.16 0.16 89 1006.1
20190220160529 24 82 6.0 11.0 0.03 0.16 0.16 89 1006.3
20190220160035 24 55 4.0 11.0 0.02 0.15 0.15 88 1006.5
20190220155539 24 103 4.0 12.0 0.02 0.15 0.15 88 1006.6
20190220155026 24 104 6.0 12.0 0.02 0.15 0.15 88 1006.7
20190220154532 23 91 5.0 12.0 0.02 0.15 0.15 88 1006.8
20190220154039 23 91 4.0 10.0 0.03 0.15 0.15 88 1006.9
20190220153525 23 84 4.0 11.0 0.02 0.14 0.14 88 1007.0
20190220153032 23 80 5.0 12.0 0.02 0.14 0.14 88 1007.2
20190220152538 23 95 5.0 12.0 0.02 0.14 0.14 88 1007.3
20190220152024 23 99 5.0 10.0 0.02 0.14 0.14 88 1007.5
20190220151532 23 105 4.0 11.0 0.02 0.14 0.14 88 1007.6
20190220151038 23 102 5.0 10.0 0.02 0.14 0.14 88 1007.9
20190220150540 22 141 5.0 10.0 0.02 0.13 0.13 88 1008.1
20190220150026 22 94 5.0 11.0 0.02 0.13 0.13 88 1008.3
20190220145531 22 66 6.0 11.0 0.03 0.13 0.13 88 1008.6
20190220145037 22 79 3.0 11.0 0.03 0.13 0.13 88 1008.7
20190220144523 22 99 4.0 11.0 0.03 0.13 0.13 88 1008.8
20190220142114 22 80 3.0 9.0 0.03 0.12 0.12 87 1009.6